IW3HBX-3 Weather Reports


time (UTC)temp
C
wind
direction
speed
KPH
gust
KPH
rain 1hr
cm
rain 24hr
cm
rain mn
cm
humidity
%
barometer
mb
20260507211156 16 57 0.0 1.6 0.00 0.00 0.00 80 1016.0
20260507210656 16 59 0.0 3.2 0.00 0.00 0.00 79 1015.9
20260507210156 16 66 4.8 6.4 0.00 0.00 0.00 79 1015.9
20260507205656 16 72 1.6 3.2 0.00 0.00 0.00 78 1015.9
20260507205155 16 66 1.6 3.2 0.00 0.00 0.00 77 1015.8
20260507204655 16 66 3.2 4.8 0.00 0.00 0.00 77 1015.8
20260507204155 16 65 4.8 8.0 0.00 0.00 0.00 76 1015.7
20260507203655 16 64 4.8 6.4 0.00 0.00 0.00 77 1015.8
20260507203155 16 62 4.8 8.0 0.00 0.00 0.00 77 1015.8
20260507202655 16 68 4.8 8.0 0.00 0.00 0.00 77 1015.8
20260507202155 16 69 4.8 6.4 0.00 0.00 0.00 77 1015.7
20260507201655 16 61 6.4 9.7 0.00 0.00 0.00 77 1015.6
20260507201155 16 67 4.8 6.4 0.00 0.00 0.00 78 1015.7
20260507200655 16 65 3.2 6.4 0.00 0.00 0.00 78 1015.5
20260507200155 16 65 4.8 8.0 0.00 0.00 0.00 79 1015.4
20260507195655 16 74 3.2 4.8 0.00 0.00 0.00 79 1015.5
20260507195154 16 74 3.2 3.2 0.00 0.00 0.00 79 1015.4
20260507194654 16 76 4.8 6.4 0.00 0.00 0.00 79 1015.4
20260507194154 16 69 4.8 4.8 0.00 0.00 0.00 79 1015.2
20260507193654 16 68 1.6 6.4 0.00 0.00 0.00 79 1015.1
20260507193154 16 72 3.2 6.4 0.00 0.00 0.00 79 1015.0
20260507192654 17 60 3.2 6.4 0.00 0.00 0.00 79 1014.9
20260507192154 17 61 4.8 8.0 0.00 0.00 0.00 79 1014.8
20260507191654 17 67 6.4 9.7 0.00 0.00 0.00 78 1014.6
20260507191154 17 61 3.2 6.4 0.00 0.00 0.00 76 1014.6
20260507190654 17 64 4.8 8.0 0.00 0.00 0.00 74 1014.5
20260507190154 17 75 3.2 4.8 0.00 0.00 0.00 73 1014.5
20260507185654 17 91 1.6 3.2 0.00 0.00 0.00 73 1014.4
20260507185153 17 76 1.6 4.8 0.00 0.00 0.00 72 1014.3
20260507184653 17 78 3.2 6.4 0.00 0.00 0.00 72 1014.2
20260507184153 17 67 1.6 4.8 0.00 0.00 0.00 71 1014.2
20260507183653 18 61 1.6 4.8 0.00 0.00 0.00 70 1014.1
20260507183153 18 96 1.6 4.8 0.00 0.00 0.00 70 1014.1
20260507182653 18 70 3.2 4.8 0.00 0.00 0.00 70 1014.0
20260507182153 18 77 3.2 4.8 0.00 0.00 0.00 72 1014.1
20260507181653 18 75 1.6 8.0 0.00 0.00 0.00 72 1013.9
20260507181153 18 71 4.8 8.0 0.00 0.00 0.00 72 1013.9
20260507180653 18 63 3.2 4.8 0.00 0.00 0.00 71 1013.9
20260507180153 18 87 4.8 8.0 0.00 0.00 0.00 70 1013.8
20260507175653 18 83 3.2 6.4 0.00 0.00 0.00 70 1013.7
20260507175152 18 83 6.4 9.7 0.00 0.00 0.00 69 1013.5
20260507174652 18 67 3.2 12.9 0.00 0.00 0.00 68 1013.6
20260507174151 18 82 3.2 6.4 0.00 0.00 0.00 69 1013.5
20260507173651 18 67 3.2 6.4 0.00 0.00 0.00 69 1013.4
20260507173150 18 73 4.8 8.0 0.00 0.00 0.00 69 1013.3
20260507172650 18 65 4.8 6.4 0.00 0.00 0.00 70 1013.2
20260507172150 18 57 4.8 9.7 0.00 0.00 0.00 69 1013.2
20260507171649 18 73 6.4 8.0 0.00 0.00 0.00 70 1013.2
20260507171149 18 69 4.8 9.7 0.00 0.00 0.00 70 1013.2
20260507170648 18 58 4.8 11.3 0.00 0.00 0.00 70 1013.2
20260507170148 18 68 6.4 9.7 0.00 0.00 0.00 70 1013.2
20260507165647 18 65 8.0 11.3 0.00 0.00 0.00 69 1013.3
20260507165147 18 59 8.0 12.9 0.00 0.00 0.00 69 1013.2
20260507164647 19 72 6.4 11.3 0.00 0.00 0.00 68 1013.2
20260507164146 19 79 6.4 12.9 0.00 0.00 0.00 68 1013.1
20260507163646 20 85 6.4 9.7 0.00 0.00 0.00 68 1013.1
20260507163145 20 79 8.0 14.5 0.00 0.00 0.00 66 1013.2
20260507162645 20 65 8.0 12.9 0.00 0.00 0.00 66 1013.2
20260507162145 20 66 8.0 12.9 0.00 0.00 0.00 66 1013.2
20260507161644 20 77 8.0 11.3 0.00 0.00 0.00 67 1013.2
20260507161144 20 62 4.8 8.0 0.00 0.00 0.00 67 1013.1
20260507160643 20 66 6.4 9.7 0.00 0.00 0.00 69 1013.1
20260507160143 19 64 4.8 9.7 0.00 0.00 0.00 69 1013.1
20260507155642 20 69 8.0 12.9 0.00 0.00 0.00 68 1013.1
20260507155142 19 69 8.0 9.7 0.00 0.00 0.00 69 1013.0
20260507154642 20 66 11.3 14.5 0.00 0.00 0.00 68 1013.0
20260507154141 20 63 8.0 11.3 0.00 0.00 0.00 65 1012.8
20260507153641 21 69 3.2 6.4 0.00 0.00 0.00 59 1012.8
20260507153140 21 73 4.8 8.0 0.00 0.00 0.00 58 1012.8
20260507152640 21 74 4.8 8.0 0.00 0.00 0.00 57 1012.8
20260507152140 20 62 8.0 12.9 0.00 0.00 0.00 57 1012.8
20260507151639 21 80 3.2 6.4 0.00 0.00 0.00 56 1012.8
20260507151139 21 56 1.6 9.7 0.00 0.00 0.00 56 1012.8
20260507150639 20 66 6.4 9.7 0.00 0.00 0.00 56 1012.8
20260507150139 20 74 4.8 8.0 0.00 0.00 0.00 57 1012.7
20260507145639 20 57 1.6 4.8 0.00 0.00 0.00 57 1012.6
20260507145139 20 330 0.0 1.6 0.00 0.00 0.00 58 1012.4
20260507144639 20 285 0.0 1.6 0.00 0.00 0.00 59 1012.5
20260507144139 20 292 1.6 3.2 0.00 0.00 0.00 58 1012.5
20260507143639 20 289 3.2 6.4 0.00 0.00 0.00 58 1012.4
20260507143138 20 311 1.6 4.8 0.00 0.00 0.00 58 1012.4
20260507142137 20 307 4.8 8.0 0.00 0.00 0.00 57 1012.6
20260507141637 20 317 6.4 9.7 0.00 0.00 0.00 56 1012.6
20260507141136 20 322 4.8 9.7 0.00 0.00 0.00 56 1012.5
20260507140636 20 310 6.4 11.3 0.00 0.00 0.00 56 1012.7
20260507140136 21 281 4.8 12.9 0.00 0.00 0.00 54 1012.6
20260507135635 22 235 1.6 8.0 0.00 0.00 0.00 48 1012.6
20260507135135 22 238 1.6 4.8 0.00 0.00 0.00 49 1012.5
20260507134634 23 285 0.0 3.2 0.00 0.00 0.00 48 1012.5
20260507134134 23 207 3.2 8.0 0.00 0.03 0.00 48 1012.6
20260507133634 24 41 3.2 6.4 0.00 0.03 0.00 47 1012.7
20260507133133 23 214 1.6 4.8 0.00 0.08 0.00 50 1012.7
20260507132633 23 186 1.6 4.8 0.00 0.10 0.00 50 1012.6
20260507132132 23 176 3.2 8.0 0.00 0.10 0.00 48 1012.6
20260507131632 22 228 4.8 8.0 0.00 0.15 0.00 49 1012.6
20260507131131 23 224 6.4 9.7 0.00 0.15 0.00 50 1012.6
20260507130631 23 221 0.0 6.4 0.00 0.23 0.00 46 1012.6
20260507130131 23 228 6.4 9.7 0.00 0.30 0.00 48 1012.6
20260507125130 23 264 3.2 4.8 0.00 0.30 0.00 50 1012.7
20260507124629 22 261 3.2 6.4 0.00 0.30 0.00 49 1012.8
20260507124129 22 257 4.8 9.7 0.00 0.30 0.00 54 1012.7
20260507123629 21 237 3.2 4.8 0.00 0.30 0.00 56 1012.7
20260507123128 21 240 3.2 4.8 0.00 0.30 0.00 56 1012.7
20260507122127 22 3 0.0 3.2 0.00 0.30 0.00 54 1012.8
20260507121627 23 151 4.8 8.0 0.00 0.30 0.00 51 1012.8
20260507121126 23 230 3.2 8.0 0.00 0.30 0.00 52 1012.8
20260507120626 22 279 1.6 6.4 0.00 0.30 0.00 52 1012.8
20260507120126 22 214 3.2 6.4 0.00 0.30 0.00 56 1012.8
20260507115625 22 85 4.8 8.0 0.00 0.30 0.00 55 1012.8
20260507115125 22 232 0.0 3.2 0.00 0.30 0.00 55 1012.8
20260507114624 22 253 4.8 9.7 0.00 0.30 0.00 55 1012.9
20260507114124 22 140 1.6 8.0 0.00 0.30 0.00 59 1012.9
20260507113624 21 161 1.6 3.2 0.00 0.30 0.00 59 1013.0
20260507113123 21 228 4.8 9.7 0.00 0.30 0.00 61 1013.1
20260507112623 21 223 1.6 4.8 0.00 0.30 0.00 61 1013.1
20260507112122 20 158 3.2 4.8 0.00 0.30 0.00 62 1013.1
20260507111622 20 225 1.6 4.8 0.00 0.30 0.00 61 1013.2
20260507111122 20 232 1.6 4.8 0.00 0.30 0.00 61 1013.3
20260507110621 21 218 6.4 8.0 0.00 0.30 0.00 61 1013.2
20260507110121 21 146 0.0 1.6 0.00 0.30 0.00 58 1013.3
20260507105620 21 77 0.0 1.6 0.00 0.30 0.00 57 1013.3
20260507105120 21 245 0.0 3.2 0.00 0.30 0.00 59 1013.4
20260507104620 21 271 4.8 8.0 0.00 0.30 0.00 60 1013.6
20260507104119 21 246 3.2 8.0 0.00 0.30 0.00 59 1013.5
20260507103118 20 231 1.6 8.0 0.00 0.30 0.00 59 1013.6
20260507102618 20 226 3.2 6.4 0.00 0.30 0.00 61 1013.6
20260507102117 20 235 3.2 8.0 0.00 0.30 0.00 60 1013.7
20260507101617 20 233 0.0 0.0 0.00 0.30 0.00 59 1013.7
20260507101117 21 188 1.6 6.4 0.00 0.30 0.00 59 1013.8
20260507100616 21 232 1.6 3.2 0.00 0.36 0.00 57 1013.9
20260507100116 20 252 1.6 1.6 0.00 0.36 0.00 60 1013.9
20260507095615 20 244 1.6 4.8 0.00 0.36 0.00 60 1013.9
20260507095115 20 245 3.2 8.0 0.00 0.36 0.00 60 1013.9
20260507094615 20 231 1.6 6.4 0.00 0.36 0.00 62 1013.8
20260507094114 20 299 3.2 4.8 0.00 0.38 0.00 61 1013.9
20260507093113 19 273 1.6 3.2 0.00 0.38 0.00 65 1013.9
20260507092613 20 263 3.2 6.4 0.00 0.38 0.00 64 1013.9
20260507092113 20 271 3.2 8.0 0.00 0.38 0.00 63 1013.9
20260507091612 20 262 1.6 3.2 0.00 0.38 0.00 60 1013.8
20260507091112 19 240 1.6 4.8 0.00 0.38 0.00 65 1013.8
20260507090111 20 258 0.0 1.6 0.00 0.38 0.00 67 1013.9
20260507085610 20 236 1.6 3.2 0.00 0.38 0.00 67 1013.7
20260507085110 20 210 0.0 4.8 0.00 0.38 0.00 69 1013.8
20260507084610 18 230 0.0 4.8 0.00 0.38 0.00 73 1013.8
20260507084109 18 237 3.2 4.8 0.00 0.38 0.00 72 1013.7
20260507083609 18 226 0.0 1.6 0.00 0.38 0.00 74 1013.7
20260507083108 18 258 1.6 4.8 0.00 0.38 0.00 73 1013.8
20260507082608 18 268 1.6 3.2 0.00 0.38 0.00 73 1013.7
20260507082108 18 292 1.6 3.2 0.00 0.38 0.00 75 1013.6
20260507081607 17 252 0.0 0.0 0.00 0.38 0.00 77 1013.7
20260507081107 17 239 0.0 1.6 0.00 0.38 0.00 81 1013.7
20260507080606 17 238 1.6 1.6 0.00 0.38 0.00 80 1013.7
20260507080106 17 223 1.6 6.4 0.00 0.38 0.00 80 1013.6
20260507075605 17 233 0.0 3.2 0.00 0.38 0.00 82 1013.6
20260507075105 17 233 3.2 4.8 0.00 0.38 0.00 83 1013.6
20260507074733 18 229 1.6 3.2 0.00 0.38 0.00 80 1013.5
20260507074605 17 266 1.6 1.6 0.00 0.38 0.00 82 1013.6
20260507074104 18 229 1.6 3.2 0.00 0.38 0.00 80 1013.5
20260507073604 17 227 0.0 1.6 0.00 0.38 0.00 82 1013.5
20260507073103 16 227 0.0 4.8 0.00 0.38 0.00 87 1013.5
20260507072603 16 240 1.6 4.8 0.00 0.38 0.00 88 1013.6
20260507072103 16 236 4.8 8.0 0.00 0.38 0.00 88 1013.5
20260507071602 16 235 3.2 6.4 0.00 0.38 0.00 87 1013.3
20260507071102 17 261 4.8 6.4 0.00 0.38 0.00 84 1013.3
20260507070601 18 289 0.0 1.6 0.00 0.38 0.00 77 1013.2
20260507070101 18 344 0.0 0.0 0.00 0.38 0.00 78 1013.2
20260507065600 18 309 0.0 3.2 0.00 0.38 0.00 77 1013.2
20260507065100 18 4 0.0 1.6 0.00 0.38 0.00 77 1013.3
20260507064600 18 53 0.0 0.0 0.00 0.38 0.00 77 1013.2
20260507064059 17 53 3.2 3.2 0.00 0.38 0.00 81 1013.1
20260507063559 17 53 0.0 0.0 0.00 0.38 0.00 82 1013.1
20260507063058 17 54 0.0 1.6 0.00 0.38 0.00 81 1013.1
20260507062558 17 13 0.0 3.2 0.00 0.38 0.00 83 1013.1
20260507062058 18 275 0.0 0.0 0.00 0.38 0.00 79 1013.1
20260507061557 18 276 0.0 0.0 0.00 0.38 0.00 77 1013.1
20260507061057 17 270 0.0 0.0 0.00 0.38 0.00 82 1013.2
20260507060557 17 270 0.0 0.0 0.00 0.38 0.00 84 1013.1
20260507060057 17 270 0.0 0.0 0.00 0.38 0.00 84 1013.1
20260507055557 16 270 0.0 0.0 0.00 0.38 0.00 90 1013.0
20260507055057 15 270 0.0 0.0 0.00 0.38 0.00 93 1013.0
20260507054557 15 270 0.0 0.0 0.00 0.43 0.00 94 1012.9
20260507054056 14 270 0.0 1.6 0.00 0.43 0.00 95 1012.8
20260507053557 14 276 0.0 0.0 0.00 0.43 0.00 95 1012.8
20260507053057 13 276 0.0 0.0 0.00 0.43 0.00 96 1012.8
20260507052557 13 276 0.0 1.6 0.00 0.43 0.00 96 1012.8
20260507052057 13 276 1.6 1.6 0.00 0.43 0.00 95 1012.8
20260507051557 13 282 0.0 0.0 0.00 0.43 0.00 96 1012.7
20260507051057 13 282 0.0 0.0 0.00 0.43 0.00 96 1012.7
20260507050557 13 282 0.0 0.0 0.00 0.43 0.00 96 1012.6
20260507050057 13 282 0.0 0.0 0.00 0.43 0.00 96 1012.5
20260507045557 13 282 0.0 0.0 0.00 0.43 0.00 96 1012.6
20260507045057 13 282 0.0 0.0 0.00 0.46 0.00 96 1012.5
20260507044557 13 282 0.0 0.0 0.00 0.46 0.00 96 1012.3
20260507044057 13 282 0.0 0.0 0.00 0.46 0.00 96 1012.4
20260507043558 12 282 0.0 1.6 0.00 0.46 0.00 96 1012.3
20260507043057 12 285 0.0 0.0 0.00 0.46 0.00 96 1012.3
20260507042557 13 285 0.0 0.0 0.00 0.46 0.00 96 1012.2
20260507042057 13 285 0.0 0.0 0.00 0.46 0.00 96 1012.1
20260507041557 12 285 0.0 0.0 0.00 0.46 0.00 96 1012.1
20260507041057 12 285 0.0 0.0 0.00 0.46 0.00 96 1011.9
20260507040557 12 285 0.0 0.0 0.00 0.46 0.00 96 1011.9
20260507040057 12 285 0.0 0.0 0.00 0.46 0.00 96 1011.9
20260507035557 12 285 0.0 0.0 0.00 0.46 0.00 96 1011.9
20260507035057 12 285 0.0 0.0 0.00 0.46 0.00 96 1011.8
20260507034557 12 285 0.0 0.0 0.00 0.46 0.00 96 1011.8
20260507034057 12 285 0.0 0.0 0.00 0.46 0.00 96 1011.7
20260507033556 12 285 0.0 0.0 0.00 0.46 0.00 96 1011.7
20260507033056 12 285 0.0 0.0 0.00 0.46 0.00 96 1011.8
20260507032556 12 285 0.0 0.0 0.00 0.46 0.00 96 1011.8
20260507032055 12 285 0.0 0.0 0.00 0.46 0.00 96 1011.8
20260507031555 12 285 0.0 0.0 0.00 0.46 0.00 96 1011.8
20260507031055 12 285 0.0 0.0 0.00 0.46 0.00 96 1011.8
20260507030555 12 285 0.0 0.0 0.00 0.46 0.00 96 1011.8
20260507030055 12 285 0.0 0.0 0.00 0.46 0.00 96 1011.7
20260507025554 12 285 0.0 0.0 0.00 0.46 0.00 96 1011.7
20260507025054 12 285 0.0 0.0 0.00 0.46 0.00 96 1011.7
20260507024554 12 285 0.0 0.0 0.00 0.46 0.00 96 1011.7
20260507024054 13 285 0.0 0.0 0.00 0.46 0.00 96 1011.7
20260507023554 13 285 0.0 0.0 0.00 0.46 0.00 96 1011.7
20260507023054 13 285 0.0 0.0 0.00 0.46 0.00 96 1011.6
20260507022554 13 285 0.0 0.0 0.00 0.46 0.00 96 1011.7
20260507022054 13 285 0.0 0.0 0.00 0.46 0.00 96 1011.7
20260507021554 13 285 0.0 0.0 0.00 0.46 0.00 96 1011.6
20260507021054 13 285 0.0 0.0 0.00 0.46 0.00 96 1011.7
20260507020554 13 285 0.0 0.0 0.00 0.46 0.00 96 1011.7
20260507020054 13 285 0.0 0.0 0.00 0.46 0.00 96 1011.6
20260507015553 13 285 0.0 0.0 0.00 0.46 0.00 96 1011.6
20260507015053 13 285 0.0 0.0 0.00 0.46 0.00 96 1011.5
20260507014553 13 285 0.0 0.0 0.00 0.46 0.00 96 1011.4
20260507014053 13 285 0.0 1.6 0.00 0.46 0.00 96 1011.4
20260507013553 13 294 1.6 1.6 0.00 0.46 0.00 96 1011.6
20260507013053 13 300 0.0 0.0 0.00 0.46 0.00 96 1011.6
20260507012552 13 300 0.0 0.0 0.00 0.46 0.00 96 1011.6
20260507012052 13 294 0.0 0.0 0.00 0.46 0.00 95 1011.6
20260507011551 13 294 0.0 0.0 0.00 0.46 0.00 95 1011.6
20260507011051 13 294 0.0 3.2 0.00 0.46 0.00 95 1011.7
20260507010551 14 299 0.0 0.0 0.00 0.46 0.00 95 1011.7
20260507010051 14 299 0.0 0.0 0.00 0.46 0.00 95 1011.6
20260507005551 14 299 0.0 1.6 0.00 0.46 0.00 95 1011.6
20260507005051 14 288 3.2 4.8 0.00 0.46 0.00 95 1011.6
20260507004551 14 288 0.0 1.6 0.00 0.46 0.00 94 1011.7
20260507004051 14 354 0.0 3.2 0.00 0.46 0.00 94 1011.7
20260507003551 14 72 1.6 1.6 0.00 0.46 0.00 94 1011.6
20260507003051 14 72 0.0 0.0 0.00 0.46 0.00 94 1011.5
20260507002551 14 78 0.0 0.0 0.00 0.46 0.00 94 1011.5
20260507002051 14 81 3.2 4.8 0.00 0.46 0.00 94 1011.4
20260507001636 14 73 1.6 3.2 0.00 0.46 0.00 94 1011.4
20260507001550 14 73 1.6 3.2 0.00 0.46 0.00 94 1011.4
20260507001050 14 20 0.0 3.2 0.00 0.46 0.00 94 1011.4
20260507000550 14 24 0.0 0.0 0.00 0.46 0.00 94 1011.4
20260507000049 14 18 0.0 0.0 0.00 0.46 0.00 94 1011.6
20260506235549 14 57 0.0 0.0 0.00 0.46 0.00 94 1011.6
20260506235048 14 57 0.0 0.0 0.00 0.46 0.00 94 1011.7
20260506234548 14 57 0.0 0.0 0.00 0.46 0.00 94 1011.6
20260506234048 14 57 0.0 0.0 0.00 0.46 0.00 94 1011.7
20260506233548 13 57 0.0 0.0 0.00 0.46 0.00 94 1011.6
20260506233047 13 57 0.0 0.0 0.00 0.46 0.00 94 1011.6
20260506232546 13 57 1.6 1.6 0.00 0.46 0.00 94 1011.6
20260506232046 14 66 1.6 1.6 0.00 0.46 0.00 94 1011.5
20260506231546 14 72 0.0 0.0 0.00 0.46 0.00 94 1011.5
20260506231045 14 72 0.0 0.0 0.00 0.46 0.00 94 1011.5
20260506230545 14 72 0.0 0.0 0.00 0.46 0.00 94 1011.6
20260506230044 14 72 0.0 1.6 0.00 0.46 0.00 94 1011.5
20260506225544 14 61 0.0 0.0 0.00 0.46 0.00 94 1011.5
20260506225044 14 61 0.0 0.0 0.00 0.46 0.00 94 1011.6
20260506224543 14 61 0.0 1.6 0.00 0.46 0.00 93 1011.5
20260506224043 14 61 1.6 1.6 0.00 0.46 0.00 93 1011.5
20260506223542 14 61 4.8 6.4 0.00 0.46 0.00 93 1011.5
20260506223042 14 56 0.0 1.6 0.00 0.46 0.00 93 1011.5
20260506222541 14 56 0.0 0.0 0.00 0.46 0.00 93 1011.5
20260506222041 14 60 0.0 1.6 0.00 0.46 0.00 93 1011.6
20260506221541 14 56 0.0 0.0 0.00 0.46 0.00 93 1011.6
20260506221040 14 56 0.0 0.0 0.00 0.46 0.00 93 1011.6
20260506220540 14 56 0.0 0.0 0.00 0.46 0.00 93 1011.5
20260506220039 14 56 0.0 0.0 0.00 0.46 0.00 93 1011.4
20260506215539 14 63 0.0 0.0 0.00 0.46 0.46 93 1011.4
20260506214538 14 67 0.0 1.6 0.00 0.46 0.46 93 1011.4
20260506214038 15 72 0.0 0.0 0.00 0.46 0.46 92 1011.3
20260506213537 15 72 0.0 0.0 0.00 0.46 0.46 92 1011.3
20260506213037 15 72 0.0 0.0 0.00 0.46 0.46 92 1011.4
20260506212537 15 70 0.0 1.6 0.00 0.46 0.46 92 1011.4
20260506211536 15 70 0.0 1.6 0.00 0.46 0.46 92 1011.5